Wind_Speed
27 28 29 30 30 28 27 27 27 27 26 25 24 23 23 23 22 22 21 21 21 21 22 22 22 22 22 22 22 22 21 20 19 19 18 17 17 17 17 16 16 15 15 15 14 14 13 13 13 12 12 12 12 12 12 12 13 13 12 12 13 13 14 14 14 13 13 12 12 12 13 13 14 13 13 13 14 14 13 13 12 13 14 14 14
30 30 31 31 30 28 27 26 27 26 25 24 24 23 24 23 22 21 21 21 22 22 22 22 23 22 22 22 22 22 21 21 20 19 18 18 17 17 16 15 15 15 15 15 15 15 14 14 13 13 13 13 13 13 13 13 13 14 14 13 14 15 15 14 14 13 12 12 12 12 13 13 13 12 12 13 14 13 13 12 13 14 15 15 15
32 32 32 31 29 28 27 26 26 25 25 24 24 23 23 23 22 21 21 21 22 22 22 22 22 22 22 22 22 22 21 20 19 19 18 18 17 16 15 15 15 15 15 15 15 15 15 14 14 13 13 14 14 14 14 14 15 15 16 16 15 15 15 14 13 13 12 13 13 13 13 12 12 12 12 12 14 14 13 13 13 15 16 15 15
33 33 32 30 29 28 27 26 25 24 24 24 23 23 23 22 22 21 21 21 21 21 21 21 21 21 21 21 21 21 20 20 19 18 18 17 16 16 15 15 15 15 15 16 15 15 15 15 14 13 14 15 15 15 16 16 17 17 18 17 16 15 14 14 13 12 12 13 13 13 12 11 11 11 12 12 13 14 14 14 15 16 16 16 16
33 32 31 30 29 29 27 25 23 24 23 24 23 22 22 22 21 21 20 20 20 20 20 20 20 20 20 20 20 20 20 20 18 17 17 17 16 16 15 15 15 15 15 15 15 15 15 15 14 13 14 16 16 17 17 17 17 17 17 16 15 15 14 14 13 13 13 13 13 12 12 11 11 12 12 13 13 14 14 15 16 16 17 17 17
33 33 31 30 30 29 27 24 22 23 23 23 22 22 22 21 21 20 20 20 20 20 20 20 19 19 19 19 19 19 19 19 18 17 17 16 16 16 15 15 15 15 15 15 15 15 15 14 14 14 14 16 17 17 18 18 17 16 16 15 15 15 14 14 13 13 13 13 13 12 12 11 12 12 12 13 13 13 14 16 16 17 17 16 17
33 33 31 31 30 29 26 24 22 22 23 22 22 21 22 21 21 20 20 20 20 19 19 19 19 19 18 19 19 18 18 17 17 17 16 16 16 16 15 15 15 15 15 15 15 15 15 14 15 14 14 16 17 17 18 17 17 16 15 15 15 15 14 14 14 14 13 13 14 13 12 12 13 14 13 13 13 13 15 16 16 16 16 16 16
34 33 31 31 30 29 27 24 22 22 22 22 21 21 21 21 20 20 20 20 19 19 19 19 19 19 18 18 18 18 17 17 17 16 16 16 15 15 15 14 15 15 15 15 15 15 15 15 15 14 14 15 17 18 18 18 17 15 15 15 15 14 14 13 14 13 13 14 15 14 13 13 14 15 14 13 13 14 15 15 16 16 16 16 16
34 32 32 31 30 29 26 24 22 22 22 21 21 21 21 20 19 19 19 19 19 19 19 19 19 19 18 18 18 18 18 17 17 16 16 16 15 15 15 14 14 15 15 15 15 15 15 15 14 14 14 15 17 18 18 17 16 15 14 14 14 14 13 13 13 13 13 14 15 14 14 14 14 15 15 14 14 14 15 15 15 15 15 15 15
34 33 33 31 29 28 26 24 23 22 22 21 21 21 20 20 19 19 19 19 18 19 19 19 19 18 18 18 18 18 17 17 17 16 16 16 15 15 15 14 14 15 15 14 15 15 15 16 15 15 14 15 17 18 18 16 14 13 14 14 14 14 13 13 13 13 13 13 14 14 14 14 15 15 14 14 14 14 14 14 14 14 14 15 15
34 34 33 31 29 27 25 24 23 22 22 22 21 21 20 19 19 19 19 19 18 18 18 19 19 18 18 18 18 18 18 18 17 17 16 15 15 15 15 14 14 14 14 14 14 15 15 16 16 15 15 15 16 17 17 15 14 13 14 14 14 13 13 13 13 13 13 12 13 13 13 14 15 15 14 13 12 12 13 14 14 14 13 14 14
34 33 32 30 28 26 25 24 24 23 22 22 21 21 20 19 19 19 19 18 18 18 18 18 18 18 18 18 18 18 18 18 18 17 17 16 15 15 15 15 14 14 14 14 14 14 14 15 15 15 15 15 16 16 16 15 14 14 14 14 14 13 13 13 13 13 12 12 12 12 13 13 14 15 14 14 12 11 12 13 13 13 12 12 12
34 33 32 30 28 26 26 25 24 23 22 22 21 20 19 19 19 19 19 18 18 17 18 18 18 18 18 18 18 18 18 18 17 17 17 16 16 15 15 15 15 15 15 15 15 14 14 14 15 15 15 15 15 16 15 15 15 15 15 14 14 13 12 13 13 13 12 12 13 12 12 12 13 14 14 14 13 11 11 11 11 11 11 11 11
35 34 32 30 29 26 25 25 24 23 23 22 21 20 19 19 19 19 18 18 17 17 17 18 18 18 18 18 18 18 17 18 17 17 17 16 16 16 15 15 16 15 15 15 15 15 15 14 15 15 16 15 15 15 15 15 15 15 15 14 14 12 11 12 12 12 12 12 13 13 13 13 13 13 13 13 12 11 11 11 11 11 10 11 11
35 34 32 30 29 27 25 25 24 23 23 22 20 19 18 18 18 18 18 18 17 17 17 17 17 17 17 18 18 18 17 17 17 17 16 17 17 16 16 16 16 16 16 16 15 15 15 14 14 15 16 15 15 15 15 15 14 14 14 14 14 12 11 11 11 11 11 12 12 12 13 13 13 13 12 11 11 11 11 11 11 11 11 11 12
34 33 32 31 29 27 26 25 24 23 23 21 20 19 18 18 18 18 17 17 17 17 17 17 17 17 17 17 17 17 17 17 17 17 17 17 17 17 17 17 17 16 16 15 15 15 15 15 14 14 15 16 15 14 14 14 14 14 13 14 13 12 11 11 11 10 10 10 11 11 12 12 12 12 12 11 11 11 11 11 11 11 11 11 11
33 33 32 31 29 28 27 26 24 22 22 21 20 19 18 17 17 17 17 17 17 17 17 17 17 17 17 17 17 17 17 17 17 17 17 17 17 17 17 17 17 16 16 15 15 15 15 15 14 14 15 15 15 14 13 14 14 14 13 13 13 12 12 11 10 10 9 10 10 10 11 11 11 11 11 11 11 11 11 11 11 11 11 11 11
33 32 32 31 30 29 28 27 25 23 22 21 19 19 18 17 17 16 16 17 17 17 17 17 17 17 17 17 17 17 17 17 17 17 17 17 17 16 16 16 16 16 16 15 15 15 14 14 15 15 15 14 14 14 14 13 13 13 13 13 12 11 11 11 10 10 10 9 9 9 9 10 10 10 10 10 11 11 11 11 11 11 10 10 10
33 32 32 31 30 29 29 28 26 24 23 22 20 19 18 17 16 16 16 17 17 17 17 17 16 16 16 16 16 16 16 16 16 16 16 16 16 16 15 15 15 15 15 16 16 15 14 14 14 15 15 14 13 13 14 12 11 12 13 13 13 12 12 11 10 10 9 9 9 9 9 9 10 10 10 10 10 10 10 10 10 10 10 10 10
32 32 32 31 30 30 30 29 27 25 24 23 21 19 18 17 16 16 16 16 17 17 17 17 16 15 15 15 15 15 15 15 15 15 15 15 14 14 14 14 13 13 14 15 16 16 15 14 14 14 14 15 13 13 13 11 11 11 11 12 12 11 11 10 9 9 9 9 9 9 9 9 10 9 9 9 9 9 10 10 10 10 9 9 9
33 33 33 32 31 31 31 29 28 25 24 23 21 20 18 17 17 16 16 16 17 17 17 17 16 15 14 15 15 15 14 14 14 14 14 14 13 13 12 12 12 13 13 13 14 15 15 15 15 14 13 14 14 13 12 12 11 11 11 11 11 11 10 8 8 8 8 9 9 9 9 9 10 9 9 9 9 9 9 9 9 9 9 9 9
34 35 33 33 32 31 31 30 28 25 24 22 21 20 19 17 17 16 16 16 17 17 17 17 16 15 14 14 14 14 13 13 12 12 13 12 12 12 11 11 11 12 12 12 13 14 15 16 16 16 15 14 15 14 12 12 12 11 11 11 11 11 10 8 7 7 8 9 9 9 9 9 9 9 8 8 8 8 8 8 8 8 8 8 9
36 37 35 33 32 32 31 30 28 26 24 23 21 20 19 18 16 16 16 17 17 17 17 16 16 15 14 14 13 13 13 12 12 12 11 11 11 11 11 11 11 11 11 12 12 13 15 16 17 18 17 16 15 14 13 13 13 13 12 12 12 12 10 9 8 7 7 8 9 9 9 9 8 8 7 8 8 7 7 7 8 8 8 8 8
39 38 36 34 32 33 32 31 29 26 25 23 21 20 19 17 16 16 16 17 17 17 16 16 15 15 15 14 13 13 13 12 12 12 11 10 10 10 11 10 11 11 11 11 11 12 14 16 17 17 17 17 15 14 13 13 14 13 12 12 13 12 10 9 8 7 7 8 8 8 9 9 8 7 7 7 7 7 7 6 7 8 9 8 7
39 38 37 35 33 33 32 31 29 27 25 23 22 20 19 18 16 15 15 16 17 17 16 15 14 14 14 13 13 13 13 12 11 12 11 10 10 9 10 10 10 10 11 11 11 11 13 15 15 15 15 15 14 13 12 12 12 11 10 11 12 12 10 9 8 7 7 7 7 7 8 9 9 8 7 6 6 7 7 6 7 8 8 9 8
39 38 38 36 33 32 32 32 30 28 25 23 21 20 19 17 16 15 14 16 16 16 16 15 13 13 13 12 12 12 12 12 11 12 11 10 10 9 10 9 9 9 10 10 11 11 12 13 14 14 14 14 13 12 10 9 8 8 8 9 10 11 11 9 8 7 7 6 6 6 6 8 8 8 8 7 7 7 7 7 6 7 8 8 8
40 39 38 36 34 32 32 32 30 28 26 24 22 20 19 17 15 14 13 14 15 15 15 14 13 12 12 12 11 11 11 11 11 11 10 10 10 9 9 9 9 9 9 10 10 10 11 11 12 13 13 13 13 13 10 8 6 5 6 7 8 9 10 9 8 7 6 5 5 5 5 6 7 8 8 8 7 7 7 7 6 6 7 7 7
41 40 38 36 35 33 32 32 31 29 27 25 23 21 19 17 15 14 14 13 14 15 14 13 12 12 13 12 11 11 10 9 10 10 10 10 9 9 10 8 9 9 9 10 10 10 10 10 10 11 11 12 13 13 11 9 8 6 5 5 7 8 8 8 8 7 7 5 4 4 4 4 5 7 8 8 7 7 7 7 7 6 6 6 7
41 40 38 37 35 34 33 32 31 29 28 26 24 22 20 18 15 14 15 14 14 14 14 14 13 13 13 13 12 11 10 8 9 9 9 8 8 8 9 8 8 8 8 8 8 8 9 9 9 10 11 13 14 13 12 10 8 5 5 6 6 6 7 7 6 6 6 6 4 3 3 3 3 5 6 8 8 7 7 6 6 6 6 5 6
41 40 38 37 36 35 34 33 31 29 28 26 24 23 21 19 16 15 16 14 14 14 14 14 14 13 12 13 12 10 10 8 8 8 8 7 6 7 8 8 7 7 8 7 6 7 8 8 7 9 10 12 14 15 14 12 8 4 5 6 5 4 5 5 4 5 5 6 5 3 3 3 2 3 4 6 7 7 6 6 5 5 5 5 5
40 39 39 38 37 36 35 33 31 29 28 26 24 23 22 20 17 16 16 15 15 16 15 14 14 12 11 12 12 11 10 9 9 7 7 6 5 6 7 7 7 8 8 7 6 7 7 6 6 7 8 10 13 15 15 14 10 5 3 3 5 4 4 4 3 4 4 5 6 4 3 3 2 3 4 5 6 6 6 6 5 5 5 5 4
40 40 39 38 37 37 36 33 31 29 27 26 24 22 21 20 19 18 17 16 16 16 16 14 13 12 12 12 11 11 9 9 9 6 6 5 5 6 6 6 7 7 7 7 6 6 5 5 6 7 8 8 10 13 15 14 11 7 4 3 3 5 6 6 4 3 3 5 7 5 3 3 2 2 2 4 5 5 6 6 6 6 6 5 5
40 39 38 37 37 37 36 33 31 29 28 26 24 22 21 21 21 19 17 18 16 15 15 13 11 10 13 14 10 10 9 8 8 6 6 5 6 7 6 6 6 6 6 6 6 5 4 5 6 6 6 7 8 13 16 15 12 9 5 3 2 4 8 8 6 4 3 5 7 6 3 2 2 1 1 2 4 5 6 6 6 6 6 5 6
38 38 38 37 36 37 36 33 31 30 28 27 25 23 21 21 22 20 17 17 15 14 13 11 10 10 14 15 11 11 10 9 8 7 7 7 7 7 6 6 6 6 6 7 7 6 5 5 6 6 5 7 9 12 15 15 12 10 6 4 4 5 8 10 7 5 4 4 6 6 4 3 3 2 1 1 3 4 5 6 5 5 5 5 5
38 38 39 38 36 36 36 34 32 31 29 28 26 24 22 21 22 21 18 16 15 14 13 12 12 13 14 14 12 13 12 10 9 8 8 8 7 7 6 5 5 6 6 6 6 6 5 4 5 5 5 7 10 11 13 15 13 11 6 4 4 7 9 10 9 6 4 6 7 6 5 5 4 4 3 1 1 3 4 5 5 5 5 5 5
38 38 38 38 37 36 36 34 33 32 30 28 27 25 23 22 21 21 18 17 16 15 14 14 14 14 14 12 12 13 14 12 10 8 8 8 7 6 6 5 4 4 5 5 5 5 5 4 4 5 5 7 9 10 12 15 14 10 5 3 4 6 9 11 10 7 7 9 8 7 7 6 5 4 3 2 1 1 3 4 5 6 6 6 6
39 38 38 38 38 37 36 35 34 33 31 29 27 26 25 23 21 20 19 18 18 17 16 16 15 14 14 13 12 13 15 15 13 10 9 9 7 6 6 6 5 4 4 4 4 5 5 4 4 5 5 6 8 11 13 14 14 10 5 4 5 7 9 11 11 7 7 7 7 6 6 6 6 5 4 3 2 1 1 3 5 6 6 6 5
38 38 37 37 38 38 37 35 34 33 33 31 29 27 26 24 22 21 20 19 19 19 18 17 17 15 15 14 13 13 15 16 15 13 11 10 9 7 7 7 6 5 4 4 4 4 5 4 4 4 6 6 8 10 12 14 14 11 6 4 5 8 9 11 10 6 5 5 5 5 5 6 7 7 5 5 3 2 1 1 3 5 5 5 5
37 37 36 36 38 38 37 36 34 34 34 33 31 28 27 26 24 22 21 21 20 20 20 19 18 17 15 14 13 14 15 16 16 15 13 11 11 10 9 8 7 6 6 5 4 5 5 5 4 4 5 6 7 10 12 14 14 11 7 5 4 8 10 11 8 5 3 3 4 4 4 5 5 6 6 6 4 1 1 1 1 3 4 5 5
37 37 36 36 38 39 38 37 35 35 35 35 33 30 29 28 27 26 25 23 22 21 21 20 19 17 15 13 12 13 16 16 15 15 15 13 12 10 9 9 8 7 6 5 4 5 5 5 4 4 4 5 7 11 13 14 13 11 9 6 5 8 9 8 6 3 3 4 5 3 2 3 4 5 6 7 6 3 2 2 2 3 3 4 5
39 38 38 37 39 40 40 38 36 35 36 37 36 34 32 30 30 29 28 26 24 22 22 22 20 18 16 13 12 13 16 17 15 15 16 14 13 12 10 8 8 8 7 5 5 5 6 5 5 5 4 5 8 12 15 14 13 11 10 8 8 8 8 7 6 4 3 5 5 3 2 1 2 4 6 6 8 6 2 2 2 2 3 4 4
42 40 40 38 39 40 40 39 37 37 37 39 38 36 35 33 32 30 29 28 26 23 23 23 21 19 17 15 13 13 15 16 15 15 15 15 13 13 11 9 8 8 7 7 7 7 6 6 5 5 5 7 10 12 14 13 12 11 10 11 11 11 10 8 7 7 5 6 5 4 4 2 1 1 3 5 7 8 5 2 1 1 2 3 3
43 43 41 38 38 39 40 40 38 37 37 39 40 38 36 34 32 30 28 28 27 24 23 23 22 21 19 17 15 13 14 15 15 15 15 15 14 13 12 10 9 8 8 7 7 8 7 6 6 6 6 9 12 13 12 12 11 10 10 11 12 12 12 11 10 9 8 9 7 6 7 5 3 1 2 3 5 7 6 5 3 1 1 2 2
45 45 44 40 39 40 40 41 39 37 37 39 40 39 36 34 32 30 28 27 26 24 23 23 23 23 21 19 17 15 14 15 15 15 15 15 15 14 12 11 10 9 8 7 8 8 7 7 6 7 8 10 12 13 13 12 12 12 12 11 11 12 13 14 14 12 10 12 11 9 9 8 6 4 3 3 3 5 6 5 5 3 1 1 2
47 47 46 43 41 41 41 41 40 38 37 38 40 39 37 34 32 30 28 27 26 25 25 26 26 25 24 22 21 18 16 15 15 16 15 15 15 14 13 12 11 10 9 8 9 8 8 8 8 8 9 10 12 14 14 14 13 13 12 11 10 10 13 14 14 13 12 13 13 12 11 11 9 6 3 4 4 3 4 4 4 4 3 1 0
50 49 47 45 42 42 42 41 41 39 37 37 40 40 39 37 35 34 32 31 30 29 29 28 28 27 25 24 22 20 18 16 16 16 16 16 16 15 14 13 12 12 10 10 10 10 9 9 9 9 10 10 12 14 14 14 14 13 12 10 7 8 11 13 14 13 11 13 14 13 13 12 11 7 4 5 5 3 3 4 3 5 6 4 1
52 51 48 46 44 43 42 42 42 41 39 38 39 42 41 39 38 37 35 34 33 32 30 29 29 27 25 23 22 21 20 18 17 17 17 17 16 16 15 13 13 13 11 11 11 10 9 9 9 10 10 11 12 14 15 15 14 14 13 11 9 9 10 12 15 14 10 13 14 14 14 13 11 8 6 6 6 4 4 5 4 5 7 6 2
52 51 50 48 46 44 43 44 43 42 41 39 40 42 42 40 39 38 37 35 33 31 30 29 29 28 26 24 22 21 20 19 17 17 18 18 17 17 16 15 14 14 13 12 11 10 10 10 10 10 10 11 12 13 14 14 13 12 13 13 11 11 9 10 15 14 11 13 15 15 14 13 12 9 7 7 7 6 6 7 6 5 7 7 4
52 51 51 49 47 45 44 45 45 44 43 42 41 42 42 41 40 39 38 36 32 30 29 29 29 30 29 27 24 23 22 20 19 17 18 19 19 18 17 17 16 15 14 13 12 11 11 11 11 11 10 10 12 12 13 13 12 10 11 14 13 11 9 10 13 13 11 13 17 19 17 14 13 11 8 8 7 7 8 9 8 6 6 6 4
52 51 50 50 48 47 46 46 46 45 45 44 43 42 41 41 41 40 39 37 34 31 30 29 29 30 31 29 27 26 24 23 21 19 18 19 20 19 18 18 17 16 15 14 13 13 12 12 11 11 10 10 12 13 13 12 12 10 11 15 16 13 12 12 13 12 11 12 15 17 18 16 14 12 10 9 8 8 9 10 9 8 7 6 3
51 51 51 50 50 49 48 48 47 46 45 46 45 43 42 41 41 40 39 38 35 33 32 31 30 29 31 31 29 28 26 25 23 20 19 19 20 20 19 18 17 16 16 15 14 13 12 12 12 11 11 11 11 12 13 13 13 12 12 15 19 18 15 15 14 12 12 14 14 15 17 16 14 13 11 10 9 9 11 11 10 9 8 7 5
Wind_Direction
145 142 141 138 135 133 134 136 138 139 136 133 131 129 127 124 122 120 119 118 118 118 119 121 123 125 127 129 130 130 129 129 128 129 129 130 130 130 129 129 129 129 128 127 126 124 120 114 110 111 116 117 114 114 115 114 117 123 126 126 126 125 124 121 122 122 121 121 122 124 124 126 126 125 126 128 126 123 121 121 122 120 118 116 117
145 143 140 137 135 136 137 138 140 140 137 134 130 127 124 122 121 120 120 118 118 117 118 119 121 124 126 126 128 128 127 127 127 128 128 129 129 130 130 131 131 129 128 126 126 122 118 113 108 108 114 117 114 115 118 117 117 122 123 125 127 126 123 122 123 122 122 122 124 127 128 130 129 129 130 128 126 122 119 121 123 121 118 117 117
145 142 140 137 138 139 139 139 141 142 138 133 128 125 122 121 122 122 121 120 120 119 119 120 121 124 125 125 125 124 124 125 126 127 127 129 129 131 131 131 129 126 126 125 124 122 120 115 108 106 111 116 114 114 118 117 116 120 124 125 126 124 123 123 123 122 122 124 126 128 129 129 128 130 128 125 125 123 123 123 123 121 119 119 117
145 142 141 139 141 141 139 140 143 143 138 131 127 125 122 122 123 123 123 122 121 121 122 122 123 124 124 123 123 123 124 124 125 127 128 128 129 128 127 127 125 124 125 124 123 123 122 116 110 107 110 114 114 113 115 116 116 121 124 126 126 124 121 119 119 119 121 122 125 128 128 122 119 124 125 125 125 125 127 126 125 122 120 121 120
146 144 143 142 142 140 138 141 144 144 136 130 128 126 124 124 124 124 124 123 123 124 125 125 124 124 124 122 122 123 122 122 124 126 127 127 127 125 123 123 122 123 124 124 123 122 120 116 111 106 108 114 114 112 115 117 118 121 123 122 122 120 116 114 114 114 116 118 120 123 123 116 111 116 123 126 125 125 126 126 126 125 124 124 120
147 145 145 144 143 140 140 143 146 143 136 132 131 128 126 125 125 125 125 125 125 126 126 126 125 124 124 123 122 122 120 122 123 125 126 126 125 123 121 122 121 121 123 123 123 122 120 118 113 106 105 113 116 114 116 118 121 123 122 121 120 117 114 114 112 112 113 114 113 115 117 116 110 111 118 122 124 124 124 127 127 126 125 123 117
147 146 146 145 143 142 143 146 148 144 136 134 133 130 127 125 126 126 126 126 127 128 128 127 127 125 123 122 121 120 120 122 122 123 125 124 124 123 122 121 119 119 121 123 123 122 121 119 115 107 105 113 118 117 117 119 122 124 124 121 120 118 116 114 112 113 115 113 108 107 112 115 109 108 115 120 122 125 126 128 126 125 124 120 114
148 148 147 146 144 144 145 148 150 145 136 136 135 131 128 128 128 127 128 127 127 127 127 127 125 125 123 122 122 122 122 122 122 124 124 123 123 120 118 118 117 117 119 121 122 122 119 117 114 110 108 114 120 120 119 120 120 122 124 123 121 119 116 112 110 112 114 110 105 102 108 114 110 106 110 116 119 123 125 126 125 124 123 117 111
150 149 148 148 147 145 146 150 151 144 138 139 136 132 130 130 130 129 129 127 127 126 125 125 125 125 124 123 123 123 123 123 124 124 122 123 122 120 119 117 116 116 117 119 120 120 118 116 115 112 110 112 119 122 121 120 120 121 124 124 120 117 115 112 110 111 110 107 103 100 102 111 114 107 106 110 114 120 123 124 125 123 120 114 110
152 151 150 150 149 146 148 153 151 143 141 141 137 133 133 132 132 131 130 128 126 126 125 125 125 125 124 124 123 123 123 124 123 122 122 122 122 122 121 119 116 116 117 117 117 118 117 118 117 113 110 111 116 121 123 121 118 118 121 123 120 116 114 113 113 112 110 108 106 103 100 108 115 110 107 107 110 118 121 123 124 121 116 112 109
152 152 152 151 148 148 152 155 149 144 144 142 138 135 134 134 133 132 129 127 126 125 125 126 126 125 125 125 124 124 124 123 122 121 121 122 123 122 120 119 116 115 114 113 114 115 117 119 118 116 112 111 114 119 121 119 116 115 118 121 120 116 115 116 114 110 108 108 107 106 106 109 112 112 112 108 109 117 119 122 124 121 115 111 109
152 152 152 150 149 151 156 156 149 146 145 142 139 137 136 135 133 131 128 125 125 124 126 126 126 126 125 125 124 124 123 122 120 119 119 120 121 121 119 117 115 113 112 111 111 111 114 117 118 119 117 113 115 119 120 118 116 114 116 119 119 119 119 117 112 107 106 107 105 106 110 112 111 112 114 111 113 117 116 119 121 118 115 113 111
153 153 153 152 152 157 159 156 150 147 146 143 140 139 137 136 133 131 128 126 126 126 126 126 126 126 125 125 124 123 122 121 120 118 117 117 116 116 117 116 115 113 113 112 110 110 113 116 117 119 119 118 118 120 120 119 118 116 117 117 119 120 119 119 115 111 109 108 107 108 112 113 112 112 113 114 117 119 118 120 121 120 119 119 115
154 155 155 154 154 159 161 156 151 148 147 145 143 142 140 137 134 131 128 128 127 126 125 124 126 125 126 125 124 123 122 121 119 118 116 115 113 112 113 112 114 113 113 111 110 109 110 114 117 119 120 121 120 120 120 120 120 117 117 117 117 117 116 118 117 116 114 112 110 110 113 114 114 114 114 116 119 120 121 123 124 126 127 128 124
155 156 157 156 156 160 161 157 152 150 148 146 147 145 142 139 135 132 130 130 128 125 124 124 124 124 124 124 125 124 122 121 119 118 116 114 113 110 108 107 109 110 111 110 110 109 110 111 113 117 121 124 124 123 123 122 123 120 118 116 115 115 115 114 116 118 118 117 115 114 114 113 114 115 117 118 121 122 123 123 122 124 126 131 132
157 158 158 157 158 162 162 158 155 152 149 148 150 148 145 142 138 134 133 132 128 125 124 123 123 121 122 122 122 121 120 118 115 114 113 112 111 109 107 106 107 108 110 109 110 109 109 111 111 114 120 125 126 127 127 125 126 125 118 116 115 114 112 110 116 122 123 121 120 119 116 114 115 116 118 119 121 122 123 124 123 123 123 127 133
161 161 160 159 161 164 163 160 157 154 151 151 152 151 148 146 141 138 135 133 128 125 124 123 123 121 121 119 117 114 113 112 110 110 109 108 107 106 106 106 107 107 108 107 107 107 107 109 110 112 117 123 128 129 127 124 127 126 119 117 117 113 109 108 114 123 126 127 126 124 120 118 120 120 120 119 118 118 119 122 123 124 124 124 128
164 164 163 162 164 165 164 161 159 156 153 153 154 153 151 149 145 142 138 133 128 126 125 124 124 123 121 118 116 112 111 110 109 109 108 107 104 103 104 105 107 106 105 102 101 101 103 106 108 109 112 120 127 128 124 124 126 123 118 115 114 113 108 106 110 120 124 128 131 131 127 123 123 123 123 120 118 118 119 120 121 122 124 126 128
167 169 168 166 166 167 166 164 162 158 155 155 157 155 153 151 148 145 140 134 130 127 127 126 126 125 124 122 118 114 111 110 110 110 110 108 107 106 105 105 106 107 105 102 99 96 96 100 106 109 110 113 120 126 127 128 123 116 114 112 113 112 105 101 105 115 122 128 133 137 136 131 127 126 124 121 119 119 119 120 122 123 124 127 130
170 173 172 170 169 169 168 165 163 160 158 156 155 155 154 152 150 147 142 137 133 130 128 127 129 129 128 125 120 115 112 110 110 111 111 109 109 108 106 106 106 106 105 105 103 98 95 97 102 107 109 110 113 123 131 128 118 112 110 108 109 107 102 100 105 115 121 126 134 141 142 137 133 130 127 124 123 120 119 119 122 126 128 128 129
174 176 175 173 172 172 170 166 164 162 158 155 153 152 152 153 150 148 144 139 137 134 132 131 133 134 133 129 124 119 115 113 112 112 112 111 111 110 108 107 103 101 103 106 108 104 100 99 100 103 106 110 111 115 123 119 111 106 102 97 93 94 99 103 106 115 125 129 134 141 142 139 138 137 133 129 128 125 120 119 121 126 132 132 127
176 178 178 177 175 174 171 168 165 162 158 155 153 150 149 149 149 149 146 142 140 138 136 135 136 137 137 136 132 128 123 120 119 116 114 114 115 115 113 109 105 103 105 107 109 108 107 105 103 101 103 107 109 108 110 107 104 102 97 90 82 83 94 100 100 108 126 135 135 139 141 140 142 140 135 130 130 129 125 122 122 123 126 129 127
178 180 180 180 179 176 173 170 166 162 160 158 155 150 145 145 146 148 147 144 142 141 140 138 137 138 138 138 139 134 128 126 124 122 121 120 119 119 118 113 110 108 107 107 108 111 113 113 109 106 104 105 107 106 103 101 101 100 95 90 82 80 88 91 90 98 121 137 139 141 142 142 144 140 133 131 131 131 128 126 124 121 119 121 123
180 181 181 182 182 178 176 172 168 165 163 162 159 154 147 145 146 146 146 144 142 143 142 140 139 139 138 139 140 134 130 128 124 123 125 126 125 123 120 116 115 110 106 106 107 112 117 117 115 113 110 108 107 104 101 100 100 99 94 89 83 81 85 88 86 91 111 132 142 144 144 144 144 142 136 134 137 137 133 130 127 122 118 118 121
180 182 183 184 183 182 179 175 172 169 168 168 165 159 153 151 150 146 146 145 144 146 144 142 141 140 142 141 138 132 129 129 126 125 124 126 128 124 122 120 118 114 108 106 107 113 121 124 122 121 118 115 111 107 105 103 103 101 96 89 82 80 81 88 90 89 98 116 137 144 145 146 147 146 143 140 142 143 141 139 132 124 119 119 123
181 184 185 185 185 185 182 179 177 173 174 174 171 167 162 161 160 155 151 150 149 149 147 144 144 143 145 143 138 133 131 132 130 127 124 125 127 125 124 124 121 116 111 108 110 113 121 127 131 134 129 125 122 119 117 115 112 108 102 92 85 81 78 81 87 92 93 100 120 138 145 150 153 150 148 147 145 148 149 148 141 133 126 122 124
183 186 187 186 186 186 185 183 181 178 178 177 177 176 171 169 168 166 161 157 154 152 150 149 149 145 145 143 135 132 136 137 133 128 125 125 124 124 125 126 123 117 113 112 112 116 124 128 133 142 141 136 134 132 133 135 136 131 119 105 94 89 83 79 83 93 95 95 111 130 144 152 158 156 154 153 152 153 155 154 151 144 135 129 127
185 188 188 187 187 187 188 187 184 183 182 181 183 183 179 176 175 174 170 166 160 154 153 154 155 150 147 146 135 132 139 139 137 134 127 125 126 128 130 131 126 118 115 115 117 122 128 128 130 140 147 146 142 139 139 139 146 159 154 128 107 100 98 89 84 94 92 90 106 125 142 153 163 163 159 160 161 159 157 156 154 153 147 139 136
187 189 190 189 189 188 189 190 187 187 186 185 188 188 186 182 181 179 175 173 165 157 158 158 158 155 154 151 139 135 141 139 140 139 127 128 135 131 132 134 127 120 115 116 122 126 127 127 127 131 141 149 150 148 147 145 145 170 186 167 133 110 112 107 91 92 81 75 85 109 133 145 167 175 169 167 169 165 158 156 156 158 156 151 151
188 191 191 190 191 190 192 192 190 189 188 188 190 191 192 188 184 181 178 176 169 166 166 161 158 160 159 154 147 143 147 145 143 138 125 133 145 130 133 136 127 119 115 118 122 121 126 127 121 121 131 147 156 158 157 154 145 156 189 185 174 134 124 134 112 92 68 63 70 82 119 125 155 188 189 179 176 170 162 162 165 165 164 164 166
189 192 193 192 192 192 194 193 191 191 189 190 191 192 193 191 186 182 182 180 174 170 167 163 162 165 167 164 158 153 155 157 152 143 132 144 160 138 136 135 125 120 119 127 125 113 121 123 120 123 126 141 158 164 162 158 150 147 166 181 200 194 164 171 153 107 72 67 69 67 97 110 134 175 198 197 188 177 171 172 176 177 176 178 182
191 194 194 193 192 194 196 194 192 191 191 191 191 191 192 190 188 185 185 184 177 167 164 166 166 169 176 176 169 162 166 169 161 156 150 160 174 157 149 139 128 124 122 131 127 111 116 118 126 133 131 138 155 165 165 161 157 154 149 139 190 213 204 193 173 134 94 79 71 62 79 92 107 160 193 211 206 189 181 182 186 188 188 190 194
192 195 195 194 193 194 195 195 193 193 193 192 192 192 191 190 190 188 186 186 179 168 166 166 168 178 184 183 180 174 179 181 170 167 169 177 183 174 164 148 135 126 124 128 127 122 127 121 128 136 134 141 155 162 164 165 164 157 145 110 145 204 206 199 185 156 118 85 63 53 70 90 90 120 174 225 224 206 192 189 195 199 198 199 200
193 196 197 196 195 194 195 196 195 195 195 193 193 194 192 192 193 191 189 189 182 174 171 169 177 186 186 189 191 188 190 189 182 180 182 189 188 176 161 152 144 134 130 131 134 138 135 118 124 132 127 139 155 160 164 170 166 154 132 85 111 164 190 201 193 165 131 82 52 48 63 74 78 87 101 219 233 220 205 195 199 207 208 209 208
194 195 197 197 197 195 195 197 197 197 198 195 194 196 195 194 195 191 189 192 186 181 182 182 190 188 184 189 191 194 199 198 193 189 189 194 191 175 156 149 151 144 138 142 143 140 132 116 121 131 123 132 150 158 165 170 163 150 131 88 116 150 172 192 188 160 119 75 60 65 76 73 74 71 72 87 219 217 212 201 198 205 210 211 211
195 196 198 198 198 198 197 198 198 198 200 198 195 197 197 196 196 190 188 193 190 189 191 192 196 192 189 195 195 198 204 206 203 197 199 202 194 182 165 150 157 155 143 148 146 138 136 126 132 143 135 134 147 154 161 168 164 149 127 81 110 138 149 169 173 146 103 81 76 84 88 86 88 79 73 73 70 207 213 209 202 203 206 210 209
198 198 199 199 200 200 200 200 200 200 201 201 197 197 197 198 198 191 189 194 194 196 197 197 200 199 199 204 205 206 209 213 213 206 208 213 206 192 176 158 164 169 158 162 154 148 149 137 144 152 142 138 146 154 161 165 163 151 120 85 109 122 133 151 156 133 99 89 85 89 87 83 86 81 79 77 65 54 237 222 212 206 201 204 208
200 200 200 201 200 201 202 202 203 202 203 203 200 198 196 198 200 196 194 197 197 200 203 203 203 206 207 209 211 211 213 215 217 217 214 214 211 200 187 173 174 185 184 186 174 165 168 149 150 153 139 142 145 151 160 161 160 153 118 79 106 119 127 143 146 126 105 103 104 99 81 76 77 71 72 71 57 49 37 234 221 215 203 196 197
200 201 202 202 201 202 203 204 205 203 203 204 203 201 197 197 200 200 200 202 200 201 206 208 206 210 212 214 215 214 216 214 213 217 216 213 212 204 196 188 184 191 192 192 188 181 180 158 155 164 143 147 148 148 158 160 159 157 130 92 114 134 133 140 144 128 112 124 137 120 78 80 80 63 63 56 34 24 133 112 175 207 200 190 190
201 202 202 202 203 202 203 205 205 204 202 201 201 202 200 199 201 203 204 206 204 201 205 209 210 212 215 217 216 214 217 214 209 211 214 215 214 211 205 196 187 191 197 196 196 190 180 164 164 176 159 157 156 153 161 164 163 165 151 128 134 149 145 143 152 148 131 158 166 150 93 94 89 63 62 54 35 34 153 143 132 153 175 182 190
201 203 203 203 204 203 203 205 205 203 201 199 200 203 202 201 203 205 205 206 206 203 203 207 211 214 216 220 220 215 213 214 211 207 212 217 216 215 213 206 194 192 199 197 196 196 183 175 175 176 170 168 165 160 163 168 170 173 169 159 149 152 161 163 176 184 166 175 177 176 175 134 100 69 67 64 47 42 86 143 151 158 169 176 183
200 203 204 204 204 204 205 206 205 204 202 201 202 204 205 205 205 205 205 206 207 206 205 206 210 214 216 222 223 215 210 213 214 207 211 218 219 217 216 215 207 196 198 198 196 194 186 180 174 171 167 165 169 167 162 163 165 167 167 171 167 160 167 180 201 205 197 201 204 208 208 203 198 52 54 66 53 44 58 85 86 194 194 186 187
201 202 203 204 204 204 206 207 207 205 202 202 203 205 207 208 207 206 206 207 208 208 208 207 209 214 217 221 224 218 211 214 214 209 210 218 222 221 218 220 215 202 201 202 199 193 190 188 175 173 172 168 172 172 166 161 162 169 172 177 181 178 178 186 202 208 211 219 225 226 221 219 229 272 353 27 51 47 48 59 64 72 195 209 214
201 201 202 203 205 205 206 208 208 207 203 202 204 206 207 208 209 209 208 209 210 209 208 206 206 212 217 220 223 220 215 214 214 212 211 216 223 222 220 218 213 209 206 204 205 197 192 196 189 184 181 177 178 174 170 169 169 177 179 176 184 193 196 195 198 203 215 225 230 231 225 223 234 256 320 342 21 43 32 38 58 59 57 239 254
200 201 202 205 206 206 207 208 209 209 205 202 204 205 206 208 208 208 208 207 209 209 207 206 206 210 215 219 222 221 217 214 215 216 213 214 220 222 220 215 212 214 211 206 206 199 194 197 198 196 186 182 184 180 177 176 177 183 182 173 177 196 206 202 199 202 213 227 233 231 228 231 242 259 310 325 328 2 8 21 48 37 21 26 52
202 203 205 207 208 207 208 208 209 210 206 203 204 205 206 207 207 206 206 206 208 209 209 210 209 211 214 218 221 223 221 218 216 217 215 214 218 221 220 215 213 214 210 205 202 199 200 199 201 202 191 181 187 192 189 183 184 192 193 185 189 206 207 202 202 205 212 225 230 228 229 235 245 262 293 302 302 315 345 6 21 11 11 21 60
203 204 205 207 208 207 208 209 209 211 209 206 206 207 207 209 209 208 209 210 211 211 212 213 213 215 217 218 220 223 223 221 218 218 218 216 216 220 219 216 214 213 210 206 201 201 203 204 206 206 196 186 192 198 195 189 188 197 202 202 217 232 222 209 206 204 204 212 220 223 224 230 242 260 281 290 292 293 319 334 326 344 8 20 25
203 203 204 205 207 208 209 209 210 211 211 209 207 208 209 210 211 211 212 214 216 215 214 213 214 216 219 221 222 223 223 222 220 220 220 218 215 217 218 217 214 212 211 207 203 202 202 204 204 202 201 196 196 199 197 197 197 199 200 201 213 229 226 210 203 203 206 206 207 210 214 225 239 252 275 290 292 286 298 312 308 327 5 23 38
203 203 204 205 207 208 209 209 210 212 213 212 210 209 211 212 213 213 214 216 219 219 216 214 214 216 219 223 224 226 226 226 224 222 221 218 215 214 216 217 214 212 212 207 201 201 204 206 204 203 207 205 200 200 200 202 202 199 200 200 205 210 204 195 198 205 218 213 200 200 206 215 225 236 260 275 272 269 286 301 299 308 347 17 54
202 204 204 205 206 207 208 208 210 213 215 214 212 211 212 213 214 215 215 216 218 218 217 216 214 215 218 222 225 227 228 229 228 225 222 219 216 215 216 217 215 213 212 208 202 203 205 209 211 210 211 209 205 206 208 206 201 201 208 209 207 205 198 195 201 205 213 215 205 202 208 215 222 230 243 251 251 259 275 288 289 291 317 344 15
202 203 203 205 206 206 207 209 211 213 215 215 215 214 213 215 215 215 215 216 218 217 216 216 214 213 216 220 224 226 228 230 231 227 221 220 218 216 216 217 217 214 213 210 207 208 211 212 215 214 209 208 210 215 219 216 210 209 214 214 208 206 206 205 207 206 202 205 207 206 210 221 232 238 243 247 249 255 263 274 279 279 293 319 333
Height
1547 1548 1550 1550 1552 1553 1556 1556 1557 1558 1558 1559 1560 1560 1560 1561 1561 1561 1562 1562 1562 1563 1563 1563 1564 1564 1565 1565 1566 1566 1566 1566 1567 1567 1567 1567 1567 1568 1568 1569 1569 1570 1570 1570 1571 1571 1571 1570 1569 1569 1568 1568 1568 1568 1568 1568 1567 1568 1568 1569 1569 1570 1570 1571 1571 1571 1572 1572 1573 1573 1573 1574 1574 1574 1574 1574 1574 1574 1574 1574 1574 1574 1574 1574 1575
1546 1548 1550 1551 1552 1554 1556 1557 1558 1559 1560 1560 1561 1561 1561 1562 1562 1562 1562 1563 1563 1564 1564 1564 1565 1565 1566 1566 1567 1567 1567 1567 1567 1568 1568 1568 1568 1569 1569 1570 1570 1571 1571 1571 1572 1571 1571 1571 1570 1570 1569 1569 1569 1569 1568 1568 1569 1569 1569 1569 1570 1570 1571 1571 1572 1572 1573 1573 1573 1574 1574 1574 1574 1574 1574 1574 1574 1575 1575 1575 1574 1574 1575 1575 1576
1546 1549 1550 1551 1553 1554 1556 1557 1559 1560 1561 1561 1562 1562 1562 1563 1563 1563 1564 1564 1564 1565 1565 1565 1566 1566 1567 1567 1567 1568 1568 1568 1568 1569 1569 1569 1569 1570 1570 1571 1571 1571 1572 1572 1572 1572 1571 1571 1571 1570 1570 1570 1570 1569 1569 1570 1570 1570 1570 1570 1571 1571 1572 1572 1573 1573 1573 1573 1574 1574 1574 1574 1574 1574 1575 1575 1575 1575 1576 1576 1576 1575 1576 1576 1576
1547 1549 1550 1552 1553 1555 1557 1558 1560 1560 1562 1562 1563 1563 1563 1564 1564 1565 1565 1565 1566 1566 1566 1566 1567 1567 1568 1568 1568 1568 1569 1569 1570 1569 1569 1570 1570 1570 1571 1571 1571 1572 1572 1572 1572 1572 1572 1572 1571 1571 1571 1571 1571 1570 1570 1571 1571 1571 1571 1572 1572 1573 1573 1573 1573 1574 1574 1574 1574 1575 1575 1575 1575 1575 1575 1576 1576 1576 1576 1576 1577 1576 1576 1577 1577
1547 1549 1551 1552 1554 1556 1557 1559 1560 1561 1562 1563 1563 1564 1564 1565 1565 1566 1566 1566 1567 1567 1567 1568 1568 1568 1568 1569 1569 1569 1570 1570 1570 1570 1570 1570 1570 1571 1571 1572 1572 1572 1572 1572 1572 1572 1572 1572 1572 1572 1572 1571 1572 1572 1572 1572 1572 1572 1573 1573 1573 1574 1574 1574 1574 1575 1575 1575 1575 1575 1575 1575 1575 1576 1576 1576 1577 1577 1577 1577 1578 1577 1577 1578 1578
1548 1549 1552 1553 1555 1557 1559 1560 1561 1562 1563 1564 1564 1565 1565 1566 1566 1567 1567 1567 1568 1568 1568 1569 1569 1569 1569 1570 1570 1570 1571 1571 1571 1571 1571 1571 1571 1571 1572 1572 1572 1573 1573 1573 1573 1573 1573 1573 1573 1573 1573 1573 1573 1573 1573 1573 1573 1574 1574 1574 1574 1575 1575 1575 1575 1576 1576 1576 1576 1576 1576 1576 1576 1576 1577 1577 1578 1578 1578 1579 1579 1579 1579 1579 1579
1548 1550 1553 1554 1556 1558 1559 1561 1562 1563 1564 1564 1565 1566 1566 1567 1567 1568 1568 1568 1569 1569 1569 1569 1570 1570 1570 1570 1571 1571 1572 1572 1572 1572 1572 1572 1572 1572 1572 1573 1573 1573 1573 1573 1573 1574 1574 1574 1574 1574 1574 1574 1574 1574 1574 1575 1575 1575 1575 1575 1576 1576 1576 1576 1577 1577 1577 1577 1577 1577 1577 1577 1577 1577 1578 1578 1579 1579 1579 1579 1579 1580 1580 1580 1580
1550 1551 1553 1556 1557 1558 1560 1562 1563 1564 1564 1565 1566 1566 1567 1567 1568 1568 1569 1569 1570 1570 1570 1570 1570 1571 1571 1571 1572 1572 1573 1573 1573 1573 1573 1573 1573 1573 1573 1573 1574 1574 1574 1574 1574 1574 1574 1574 1575 1575 1575 1575 1575 1575 1575 1576 1576 1576 1576 1576 1577 1577 1577 1577 1578 1578 1578 1578 1578 1578 1578 1578 1579 1579 1579 1579 1580 1580 1580 1580 1580 1581 1581 1581 1581
1550 1552 1554 1556 1558 1559 1561 1562 1564 1564 1565 1566 1566 1567 1568 1568 1569 1569 1570 1570 1570 1571 1571 1571 1571 1572 1572 1572 1573 1573 1573 1574 1574 1574 1574 1573 1574 1574 1574 1575 1574 1575 1574 1574 1575 1575 1575 1575 1575 1576 1576 1576 1576 1576 1577 1577 1577 1577 1577 1578 1578 1578 1579 1579 1579 1579 1579 1579 1579 1579 1579 1579 1580 1580 1580 1580 1581 1581 1581 1581 1581 1582 1582 1582 1582
1551 1553 1555 1557 1559 1560 1561 1563 1564 1565 1566 1566 1567 1568 1568 1569 1570 1570 1570 1571 1571 1571 1572 1572 1572 1573 1573 1573 1573 1574 1574 1575 1575 1575 1575 1575 1575 1575 1575 1575 1575 1575 1575 1575 1575 1575 1575 1576 1576 1577 1577 1577 1577 1578 1578 1578 1579 1579 1579 1579 1580 1580 1580 1580 1580 1580 1580 1580 1580 1580 1581 1581 1581 1581 1581 1581 1582 1582 1582 1582 1582 1583 1583 1583 1584
1552 1554 1556 1558 1559 1561 1562 1564 1565 1566 1567 1567 1568 1568 1569 1570 1571 1571 1571 1571 1572 1572 1572 1573 1573 1573 1574 1574 1574 1575 1575 1575 1576 1576 1576 1576 1576 1576 1576 1576 1576 1576 1576 1576 1576 1576 1576 1577 1577 1578 1578 1578 1578 1579 1579 1579 1580 1580 1580 1581 1581 1581 1581 1581 1581 1581 1581 1581 1581 1581 1582 1582 1582 1582 1583 1583 1583 1583 1583 1583 1583 1584 1584 1584 1585
1552 1554 1557 1559 1560 1562 1563 1564 1565 1566 1567 1568 1569 1569 1570 1571 1571 1572 1572 1572 1572 1573 1573 1574 1574 1574 1574 1575 1575 1576 1576 1576 1576 1576 1577 1577 1577 1577 1577 1577 1577 1577 1577 1577 1577 1577 1577 1578 1578 1578 1579 1579 1579 1580 1580 1580 1580 1581 1581 1581 1582 1582 1582 1583 1582 1582 1582 1583 1583 1583 1583 1583 1583 1583 1584 1584 1584 1584 1584 1584 1585 1585 1585 1585 1586
1552 1555 1557 1559 1561 1563 1564 1565 1566 1567 1568 1569 1570 1570 1571 1571 1572 1572 1573 1573 1573 1574 1574 1574 1574 1575 1575 1576 1576 1576 1577 1577 1577 1577 1577 1578 1578 1578 1578 1578 1578 1578 1578 1578 1578 1578 1579 1579 1579 1579 1580 1580 1580 1580 1581 1581 1581 1582 1582 1582 1583 1583 1583 1583 1583 1583 1583 1583 1584 1584 1584 1584 1584 1585 1585 1585 1585 1585 1585 1586 1586 1586 1586 1586 1587
1552 1555 1558 1559 1561 1563 1564 1566 1566 1567 1569 1570 1570 1571 1572 1572 1573 1573 1573 1574 1574 1575 1575 1575 1575 1576 1576 1576 1577 1577 1577 1577 1578 1578 1578 1578 1578 1579 1579 1579 1579 1579 1579 1579 1580 1580 1580 1580 1580 1580 1581 1581 1581 1581 1582 1582 1582 1583 1583 1583 1583 1584 1584 1584 1584 1584 1584 1584 1584 1585 1585 1585 1585 1586 1586 1586 1586 1586 1587 1587 1587 1587 1587 1587 1588
1553 1555 1558 1560 1562 1564 1565 1566 1567 1568 1569 1570 1571 1572 1573 1573 1574 1574 1574 1575 1575 1575 1575 1576 1576 1576 1577 1577 1578 1578 1578 1578 1579 1579 1579 1579 1579 1580 1580 1580 1580 1580 1580 1580 1580 1581 1581 1581 1581 1581 1581 1582 1582 1582 1583 1583 1583 1584 1584 1584 1584 1585 1585 1585 1585 1585 1585 1586 1585 1586 1586 1586 1586 1586 1587 1587 1587 1587 1588 1588 1588 1588 1588 1588 1589
1554 1556 1558 1560 1562 1564 1565 1567 1568 1569 1570 1571 1572 1573 1573 1574 1574 1575 1575 1576 1576 1576 1576 1576 1577 1577 1578 1578 1579 1579 1579 1580 1580 1580 1580 1580 1580 1581 1581 1581 1581 1581 1581 1581 1581 1581 1582 1582 1582 1582 1582 1582 1583 1583 1583 1584 1584 1584 1585 1585 1585 1586 1586 1586 1586 1586 1587 1587 1587 1587 1587 1587 1587 1587 1587 1588 1588 1588 1588 1588 1589 1589 1589 1589 1590
1555 1557 1558 1560 1562 1564 1565 1567 1568 1569 1570 1572 1573 1573 1574 1574 1575 1576 1576 1577 1577 1577 1577 1577 1578 1578 1579 1579 1580 1580 1580 1581 1581 1581 1581 1581 1582 1582 1582 1582 1582 1582 1582 1582 1582 1582 1582 1583 1583 1583 1583 1584 1584 1584 1584 1585 1585 1585 1586 1586 1586 1587 1587 1587 1587 1587 1588 1588 1588 1588 1588 1588 1588 1588 1589 1589 1589 1589 1589 1589 1590 1590 1590 1590 1591
1556 1558 1559 1561 1562 1564 1565 1567 1568 1569 1571 1572 1573 1574 1574 1575 1576 1576 1577 1577 1577 1578 1578 1578 1579 1579 1580 1580 1581 1581 1581 1582 1582 1582 1582 1583 1583 1583 1583 1583 1583 1583 1583 1583 1583 1583 1583 1583 1584 1584 1584 1585 1585 1585 1585 1586 1586 1586 1586 1587 1587 1587 1588 1588 1588 1588 1588 1589 1589 1589 1589 1589 1589 1589 1589 1590 1590 1590 1590 1590 1590 1591 1591 1591 1591
1556 1558 1560 1561 1562 1564 1565 1567 1568 1569 1571 1572 1573 1574 1575 1575 1576 1577 1577 1578 1578 1578 1579 1579 1580 1580 1581 1581 1582 1582 1582 1583 1583 1583 1583 1584 1584 1584 1584 1584 1584 1584 1584 1584 1585 1585 1585 1585 1584 1585 1585 1585 1586 1586 1586 1586 1587 1587 1587 1587 1588 1588 1588 1589 1589 1589 1589 1589 1589 1589 1589 1590 1590 1590 1590 1590 1591 1591 1591 1591 1591 1591 1592 1592 1592
1557 1559 1560 1561 1562 1564 1565 1567 1568 1569 1570 1572 1573 1574 1575 1576 1576 1577 1578 1579 1579 1579 1580 1580 1580 1581 1582 1582 1582 1583 1583 1583 1584 1584 1584 1585 1585 1585 1585 1585 1585 1585 1585 1586 1586 1586 1586 1586 1586 1586 1586 1586 1587 1587 1587 1587 1588 1588 1588 1588 1588 1589 1589 1589 1590 1590 1590 1590 1590 1590 1590 1590 1591 1591 1591 1591 1591 1591 1592 1592 1592 1592 1592 1592 1593
1557 1558 1560 1561 1562 1564 1565 1566 1568 1569 1571 1571 1573 1574 1575 1576 1577 1578 1578 1579 1579 1580 1580 1581 1581 1582 1582 1583 1583 1583 1584 1584 1585 1585 1585 1585 1585 1585 1585 1586 1586 1586 1586 1587 1587 1587 1587 1587 1587 1587 1587 1587 1587 1588 1588 1589 1589 1589 1589 1589 1589 1589 1590 1590 1590 1590 1590 1590 1590 1591 1591 1591 1591 1591 1592 1592 1592 1592 1592 1593 1593 1593 1593 1593 1593
1555 1557 1559 1561 1562 1564 1565 1567 1568 1569 1571 1572 1573 1574 1575 1576 1577 1578 1579 1579 1580 1581 1581 1581 1582 1583 1583 1583 1584 1584 1585 1585 1585 1586 1585 1586 1586 1586 1586 1587 1587 1587 1587 1588 1588 1588 1588 1588 1588 1588 1588 1588 1589 1589 1589 1589 1590 1590 1590 1590 1590 1590 1590 1590 1590 1591 1591 1591 1591 1591 1591 1592 1592 1592 1592 1593 1593 1593 1593 1593 1594 1594 1594 1594 1594
1553 1555 1558 1560 1562 1564 1565 1566 1568 1569 1571 1572 1573 1574 1575 1576 1577 1578 1579 1580 1580 1581 1582 1582 1583 1583 1584 1584 1584 1585 1585 1586 1586 1586 1586 1586 1586 1587 1587 1587 1588 1588 1588 1588 1588 1589 1589 1589 1589 1589 1589 1589 1590 1590 1590 1590 1591 1591 1591 1591 1591 1591 1591 1591 1591 1591 1591 1591 1591 1592 1592 1592 1593 1593 1593 1593 1594 1594 1594 1594 1595 1595 1595 1595 1595
1552 1554 1557 1559 1561 1563 1565 1566 1568 1569 1570 1572 1573 1574 1575 1577 1578 1579 1579 1580 1581 1581 1582 1583 1583 1584 1584 1584 1585 1585 1585 1586 1586 1586 1586 1587 1587 1587 1588 1588 1588 1588 1589 1589 1589 1589 1589 1590 1590 1590 1590 1591 1591 1591 1591 1591 1591 1591 1591 1591 1591 1591 1591 1592 1592 1592 1592 1592 1592 1592 1593 1593 1593 1593 1594 1594 1594 1595 1595 1595 1595 1596 1596 1596 1595
1551 1554 1556 1558 1560 1562 1564 1566 1567 1569 1570 1572 1573 1574 1575 1577 1578 1579 1580 1580 1581 1582 1582 1583 1583 1584 1584 1585 1585 1585 1586 1586 1586 1587 1587 1587 1587 1588 1588 1588 1589 1589 1589 1589 1589 1590 1590 1590 1591 1591 1591 1591 1592 1592 1592 1592 1592 1592 1592 1592 1592 1592 1592 1592 1592 1592 1592 1592 1593 1593 1593 1593 1594 1594 1594 1595 1595 1595 1596 1596 1596 1596 1596 1596 1596
1551 1553 1555 1557 1560 1562 1564 1565 1567 1568 1570 1572 1573 1575 1575 1577 1578 1579 1580 1580 1581 1582 1582 1583 1583 1584 1584 1585 1585 1585 1586 1586 1587 1587 1587 1588 1588 1588 1589 1589 1589 1589 1590 1590 1590 1590 1590 1591 1591 1591 1592 1592 1592 1593 1593 1593 1593 1593 1593 1593 1593 1592 1593 1593 1593 1593 1593 1593 1593 1593 1594 1594 1594 1594 1595 1595 1596 1596 1597 1597 1597 1597 1597 1597 1597
1550 1552 1554 1557 1559 1561 1563 1565 1566 1568 1570 1572 1573 1574 1575 1577 1578 1579 1580 1580 1581 1582 1582 1583 1584 1584 1585 1585 1585 1585 1586 1586 1587 1587 1588 1588 1589 1589 1589 1590 1590 1590 1590 1590 1590 1590 1591 1591 1591 1592 1592 1592 1592 1593 1593 1593 1593 1593 1593 1593 1593 1593 1593 1593 1593 1594 1594 1594 1594 1594 1594 1594 1594 1595 1595 1596 1596 1597 1597 1597 1598 1598 1598 1598 1598
1549 1551 1553 1556 1558 1560 1562 1564 1566 1567 1569 1571 1572 1574 1575 1576 1578 1579 1580 1580 1581 1582 1582 1583 1584 1584 1585 1585 1585 1586 1586 1587 1587 1588 1588 1588 1589 1590 1590 1590 1590 1590 1590 1590 1591 1591 1591 1591 1591 1592 1592 1592 1593 1593 1593 1594 1594 1593 1594 1594 1594 1594 1594 1594 1594 1594 1594 1594 1594 1594 1594 1595 1595 1595 1595 1596 1596 1597 1597 1598 1598 1598 1598 1598 1598
1548 1550 1552 1554 1557 1559 1561 1563 1565 1567 1568 1570 1572 1573 1575 1576 1577 1579 1579 1580 1581 1582 1582 1583 1584 1584 1585 1585 1585 1586 1586 1587 1588 1588 1588 1589 1589 1590 1590 1590 1590 1591 1591 1591 1591 1591 1591 1591 1592 1592 1592 1592 1593 1593 1593 1594 1594 1594 1594 1594 1594 1594 1594 1594 1595 1595 1595 1595 1595 1595 1595 1595 1595 1595 1596 1596 1597 1597 1598 1598 1598 1598 1599 1599 1599
1547 1549 1551 1553 1556 1558 1560 1562 1564 1566 1568 1569 1571 1573 1574 1575 1577 1578 1579 1580 1581 1582 1582 1583 1584 1584 1585 1585 1585 1586 1587 1587 1588 1588 1588 1589 1590 1590 1590 1591 1591 1591 1591 1591 1591 1591 1591 1591 1592 1592 1592 1592 1593 1593 1593 1594 1594 1594 1594 1594 1594 1595 1595 1595 1595 1596 1596 1596 1595 1595 1595 1595 1596 1596 1596 1597 1597 1597 1598 1598 1598 1599 1599 1599 1599
1547 1548 1550 1552 1555 1557 1559 1561 1563 1565 1567 1568 1570 1572 1573 1575 1576 1578 1579 1580 1580 1581 1582 1583 1583 1584 1585 1585 1585 1586 1586 1587 1588 1588 1588 1589 1590 1590 1590 1591 1591 1591 1591 1591 1591 1591 1591 1591 1592 1592 1592 1592 1593 1593 1593 1594 1594 1594 1594 1593 1594 1595 1595 1595 1596 1596 1596 1596 1596 1596 1596 1596 1596 1596 1596 1597 1597 1597 1598 1598 1598 1599 1599 1599 1599
1545 1546 1548 1551 1553 1555 1558 1560 1562 1564 1566 1568 1569 1571 1573 1574 1576 1577 1578 1579 1580 1581 1582 1583 1583 1584 1585 1585 1585 1585 1586 1587 1587 1588 1588 1589 1590 1590 1591 1591 1591 1591 1591 1591 1591 1591 1591 1591 1592 1592 1592 1592 1592 1593 1593 1594 1594 1594 1594 1593 1593 1594 1595 1596 1596 1597 1597 1596 1596 1596 1596 1596 1596 1596 1597 1597 1597 1597 1597 1598 1598 1598 1599 1599 1599
1543 1546 1548 1550 1552 1554 1556 1559 1561 1563 1565 1567 1568 1570 1572 1574 1575 1576 1578 1579 1579 1580 1581 1582 1583 1584 1585 1585 1585 1585 1586 1587 1587 1588 1588 1589 1590 1590 1591 1591 1591 1591 1591 1591 1591 1591 1591 1591 1592 1592 1592 1592 1592 1592 1593 1593 1594 1594 1594 1594 1593 1594 1594 1596 1597 1597 1597 1597 1596 1596 1596 1596 1597 1597 1597 1597 1597 1597 1598 1598 1598 1598 1599 1599 1599
1542 1545 1547 1548 1550 1553 1555 1557 1559 1561 1564 1566 1568 1569 1571 1573 1574 1575 1577 1578 1578 1579 1580 1581 1582 1583 1584 1585 1585 1585 1586 1586 1587 1587 1588 1589 1589 1590 1590 1591 1591 1591 1591 1591 1591 1591 1591 1591 1592 1592 1591 1592 1592 1592 1593 1593 1594 1595 1595 1594 1593 1593 1594 1595 1597 1597 1598 1597 1597 1596 1596 1597 1597 1597 1597 1597 1597 1597 1598 1598 1598 1598 1598 1599 1599
1541 1543 1545 1547 1549 1551 1553 1555 1558 1560 1562 1565 1567 1568 1570 1571 1573 1574 1576 1577 1577 1578 1579 1580 1582 1583 1584 1584 1585 1585 1586 1586 1587 1587 1588 1589 1589 1590 1590 1590 1591 1591 1591 1591 1591 1591 1591 1591 1591 1592 1591 1591 1592 1592 1593 1593 1594 1595 1595 1594 1594 1594 1594 1595 1597 1598 1598 1597 1597 1597 1597 1597 1597 1597 1597 1597 1597 1597 1598 1597 1598 1598 1598 1598 1599
1539 1541 1544 1546 1548 1550 1552 1554 1556 1559 1561 1563 1566 1567 1569 1570 1572 1573 1575 1576 1576 1577 1578 1579 1581 1582 1583 1584 1585 1585 1585 1586 1587 1587 1588 1588 1589 1589 1590 1590 1590 1591 1591 1591 1591 1591 1591 1591 1591 1591 1592 1592 1592 1592 1593 1593 1594 1595 1594 1594 1594 1594 1594 1595 1597 1598 1598 1597 1597 1597 1597 1597 1597 1597 1597 1597 1597 1597 1597 1597 1597 1598 1598 1598 1598
1537 1539 1542 1544 1546 1548 1550 1552 1554 1557 1559 1562 1564 1566 1568 1569 1571 1572 1574 1575 1576 1577 1577 1579 1580 1581 1582 1583 1584 1585 1585 1586 1586 1587 1588 1588 1589 1589 1589 1590 1590 1590 1591 1591 1591 1591 1591 1591 1591 1591 1592 1592 1592 1592 1592 1593 1594 1594 1594 1593 1594 1594 1595 1596 1597 1597 1597 1597 1597 1597 1597 1597 1597 1597 1597 1597 1597 1597 1597 1598 1597 1597 1598 1598 1598
1536 1538 1540 1542 1545 1547 1548 1550 1553 1556 1558 1560 1563 1565 1567 1568 1570 1571 1573 1574 1575 1576 1577 1578 1579 1580 1581 1582 1583 1584 1585 1585 1586 1587 1587 1588 1588 1589 1589 1589 1590 1590 1590 1591 1591 1591 1591 1591 1591 1591 1592 1592 1592 1592 1592 1593 1594 1594 1594 1594 1594 1595 1595 1596 1597 1597 1597 1597 1597 1598 1598 1598 1598 1598 1598 1598 1598 1598 1598 1598 1598 1598 1598 1598 1598
1535 1537 1539 1541 1544 1546 1547 1549 1551 1554 1557 1559 1562 1564 1566 1568 1569 1570 1572 1573 1574 1575 1576 1576 1578 1579 1580 1581 1582 1583 1584 1584 1585 1586 1587 1587 1588 1588 1589 1589 1590 1590 1590 1590 1591 1591 1591 1591 1591 1591 1592 1592 1592 1592 1592 1593 1594 1594 1594 1594 1595 1595 1596 1596 1597 1597 1597 1598 1598 1598 1598 1599 1598 1598 1598 1598 1598 1598 1598 1598 1598 1598 1598 1598 1598
1533 1535 1537 1540 1542 1544 1546 1547 1549 1552 1555 1558 1560 1562 1564 1566 1567 1569 1570 1571 1572 1573 1574 1575 1576 1578 1579 1580 1581 1582 1583 1583 1584 1585 1586 1587 1587 1588 1588 1589 1589 1589 1590 1590 1590 1591 1591 1591 1591 1591 1591 1592 1592 1592 1592 1593 1593 1594 1595 1595 1595 1595 1596 1597 1597 1597 1598 1598 1598 1598 1599 1599 1599 1599 1599 1599 1599 1598 1598 1599 1598 1598 1598 1598 1598
1531 1533 1535 1537 1539 1541 1543 1544 1547 1550 1552 1555 1557 1559 1561 1563 1564 1566 1567 1568 1570 1572 1573 1574 1575 1576 1578 1579 1580 1581 1582 1582 1583 1584 1585 1585 1586 1587 1588 1588 1589 1589 1589 1590 1590 1590 1591 1591 1591 1591 1591 1591 1592 1592 1592 1593 1593 1594 1595 1595 1596 1596 1596 1597 1597 1598 1598 1598 1599 1599 1599 1599 1599 1599 1599 1599 1599 1599 1598 1599 1599 1599 1599 1599 1598
1528 1530 1532 1534 1537 1539 1541 1543 1545 1547 1550 1552 1554 1556 1558 1560 1561 1563 1565 1567 1568 1570 1571 1572 1574 1575 1576 1578 1579 1580 1581 1581 1582 1583 1584 1584 1585 1586 1587 1588 1588 1589 1589 1589 1590 1590 1590 1590 1591 1591 1591 1591 1591 1592 1592 1592 1593 1594 1595 1596 1596 1596 1597 1597 1597 1598 1598 1599 1599 1599 1599 1599 1599 1599 1599 1599 1599 1599 1599 1599 1599 1599 1599 1599 1599
1525 1528 1530 1532 1535 1537 1539 1541 1543 1545 1547 1550 1552 1554 1556 1558 1560 1562 1564 1566 1567 1569 1570 1572 1573 1574 1575 1576 1578 1579 1580 1580 1581 1582 1583 1583 1584 1585 1586 1587 1588 1588 1588 1589 1589 1589 1590 1590 1590 1590 1591 1591 1591 1592 1592 1593 1593 1594 1595 1595 1596 1597 1597 1597 1597 1598 1598 1599 1599 1599 1599 1599 1599 1599 1599 1600 1600 1600 1600 1600 1599 1599 1599 1599 1599
1523 1526 1528 1530 1532 1534 1536 1538 1540 1542 1545 1548 1550 1552 1555 1557 1559 1561 1563 1565 1566 1568 1570 1571 1572 1572 1573 1575 1576 1577 1578 1579 1580 1581 1582 1583 1583 1584 1586 1586 1587 1588 1588 1588 1589 1589 1589 1589 1590 1590 1590 1591 1591 1591 1592 1592 1593 1593 1594 1595 1596 1596 1597 1597 1597 1598 1598 1598 1599 1599 1599 1600 1600 1600 1600 1600 1600 1600 1600 1600 1600 1600 1599 1599 1599
1520 1522 1524 1526 1528 1530 1533 1535 1538 1540 1543 1546 1548 1551 1554 1556 1558 1560 1562 1564 1566 1567 1568 1569 1569 1570 1571 1573 1574 1576 1577 1578 1579 1580 1581 1582 1582 1583 1585 1586 1587 1587 1587 1588 1588 1588 1589 1589 1589 1590 1590 1590 1591 1591 1592 1592 1593 1593 1594 1594 1595 1596 1596 1596 1597 1598 1598 1598 1598 1599 1599 1600 1600 1600 1600 1600 1600 1600 1600 1600 1600 1600 1600 1599 1599
1515 1517 1520 1523 1525 1528 1530 1533 1536 1538 1541 1543 1546 1549 1551 1553 1555 1557 1558 1560 1562 1563 1563 1565 1566 1568 1569 1571 1573 1574 1575 1577 1578 1579 1580 1581 1582 1582 1584 1585 1586 1586 1587 1587 1588 1588 1588 1588 1589 1589 1590 1590 1591 1591 1591 1592 1592 1593 1594 1594 1595 1595 1595 1596 1597 1597 1598 1598 1598 1599 1599 1600 1600 1600 1600 1600 1600 1600 1600 1600 1600 1600 1600 1599 1599
1511 1514 1517 1520 1523 1525 1528 1530 1533 1536 1538 1541 1544 1546 1548 1550 1552 1553 1554 1556 1557 1559 1561 1563 1565 1566 1568 1570 1571 1572 1574 1575 1576 1577 1578 1580 1581 1582 1582 1584 1585 1585 1586 1587 1587 1587 1588 1588 1588 1589 1590 1590 1590 1590 1591 1592 1592 1592 1593 1594 1595 1595 1595 1595 1596 1597 1597 1597 1597 1598 1599 1599 1600 1600 1600 1600 1600 1600 1600 1600 1600 1600 1600 1599 1599
1508 1512 1515 1517 1520 1522 1525 1528 1530 1533 1536 1538 1541 1543 1545 1547 1549 1551 1552 1554 1555 1557 1560 1562 1564 1565 1567 1568 1569 1571 1572 1573 1575 1576 1577 1578 1579 1580 1581 1582 1583 1584 1585 1586 1586 1587 1587 1587 1588 1588 1589 1589 1589 1590 1591 1591 1591 1592 1593 1594 1594 1595 1595 1595 1596 1596 1596 1596 1597 1598 1598 1599 1599 1599 1599 1599 1599 1599 1600 1600 1600 1600 1600 1600 1599
1506 1508 1511 1514 1517 1520 1522 1525 1528 1530 1533 1536 1538 1540 1542 1544 1546 1548 1550 1552 1554 1557 1559 1561 1562 1564 1565 1566 1568 1569 1570 1571 1573 1574 1576 1577 1578 1579 1580 1581 1582 1583 1584 1585 1586 1586 1586 1587 1587 1588 1588 1588 1589 1590 1590 1591 1591 1592 1592 1593 1594 1594 1594 1595 1595 1596 1596 1595 1596 1597 1598 1598 1599 1599 1599 1599 1599 1599 1599 1599 1600 1600 1600 1600 1600
1502 1506 1509 1512 1515 1517 1520 1522 1525 1527 1530 1532 1535 1537 1539 1542 1544 1545 1547 1549 1552 1554 1557 1559 1561 1562 1563 1564 1566 1567 1568 1570 1571 1573 1574 1575 1577 1578 1579 1580 1581 1582 1583 1584 1585 1585 1586 1586 1587 1587 1588 1588 1588 1589 1590 1590 1591 1591 1592 1593 1593 1594 1594 1594 1595 1595 1595 1595 1595 1596 1597 1597 1597 1598 1598 1599 1599 1599 1599 1599 1599 1599 1600 1600 1600
1500 1503 1506 1509 1512 1515 1517 1519 1521 1524 1527 1529 1532 1534 1536 1539 1541 1543 1545 1547 1549 1551 1554 1556 1558 1559 1560 1562 1563 1565 1566 1568 1569 1571 1573 1574 1575 1577 1578 1579 1580 1581 1583 1583 1584 1585 1585 1586 1586 1587 1587 1588 1588 1588 1589 1590 1590 1591 1591 1592 1592 1593 1593 1594 1595 1595 1595 1595 1595 1596 1597 1597 1597 1598 1598 1598 1598 1598 1598 1598 1599 1599 1599 1599 1600